EW4271 Weather Reports


Display with metric or nautical units.
time (UTC)temp
F
wind
direction
speed
MPH
gust
MPH
rain 1hr
in
rain 24hr
in
rain mn
in
humidity
%
barometer
mb
20260903035632 67 286 1.0 3.0 0.00 0.00 0.00 38 1025.5
20260903035109 67 296 1.0 2.0 0.00 0.00 0.00 37 1025.6
20260903034602 66 23 1.0 3.0 0.00 0.00 0.00 39 1025.5
20260903034116 66 26 1.0 3.0 0.00 0.00 0.00 40 1025.4
20260903033609 66 298 1.0 3.0 0.00 0.00 0.00 40 1025.5
20260903033104 66 236 1.0 3.0 0.00 0.00 0.00 41 1025.5
20260903032617 66 236 1.0 2.0 0.00 0.00 0.00 43 1025.5
20260903032111 66 236 0.0 0.0 0.00 0.00 0.00 41 1025.5
20260903031605 65 236 0.0 0.0 0.00 0.00 0.00 42 1025.4
20260903031103 65 236 0.0 0.0 0.00 0.00 0.00 43 1025.5
20260903030618 65 236 0.0 0.0 0.00 0.00 0.00 42 1025.4
20260903030110 65 236 0.0 0.0 0.00 0.00 0.00 42 1025.4
20260903025605 65 236 0.0 0.0 0.00 0.00 0.00 47 1025.3
20260903025118 65 236 0.0 0.0 0.00 0.00 0.00 46 1025.2
20260903024612 66 236 0.0 0.0 0.00 0.00 0.00 45 1025.2
20260903024105 66 236 0.0 0.0 0.00 0.00 0.00 44 1025.1
20260903023603 66 236 0.0 0.0 0.00 0.00 0.00 39 1025.0
20260903023118 66 236 0.0 0.0 0.00 0.00 0.00 39 1025.0
20260903022611 66 236 0.0 0.0 0.00 0.00 0.00 41 1024.9
20260903022106 67 236 0.0 0.0 0.00 0.00 0.00 39 1024.8
20260903021640 67 236 0.0 0.0 0.00 0.00 0.00 39 1024.8
20260903021135 67 236 0.0 0.0 0.00 0.00 0.00 38 1024.8
20260903020609 67 236 0.0 0.0 0.00 0.00 0.00 39 1024.8
20260903020104 68 236 0.0 0.0 0.00 0.00 0.00 38 1024.7
20260903015618 68 236 0.0 0.0 0.00 0.00 0.00 38 1024.7
20260903015132 69 236 0.0 0.0 0.00 0.00 0.00 36 1024.6
20260903014609 70 236 0.0 0.0 0.00 0.00 0.00 36 1024.6
20260903014123 70 236 0.0 0.0 0.00 0.00 0.00 35 1024.6
20260903013635 71 236 0.0 0.0 0.00 0.00 0.00 36 1024.5
20260903013108 72 236 0.0 0.0 0.00 0.00 0.00 36 1024.5
20260903012602 73 236 0.0 0.0 0.00 0.00 0.00 33 1024.5
20260903012115 73 236 0.0 0.0 0.00 0.00 0.00 35 1024.6
20260903011609 74 236 0.0 0.0 0.00 0.00 0.00 35 1024.5
20260903011104 75 236 0.0 0.0 0.00 0.00 0.00 31 1024.4
20260903010618 75 236 0.0 0.0 0.00 0.00 0.00 30 1024.5
20260903010116 76 236 0.0 0.0 0.00 0.00 0.00 30 1024.6
20260903005610 76 236 0.0 0.0 0.00 0.00 0.00 29 1024.5
20260903005123 76 236 0.0 3.0 0.00 0.00 0.00 27 1024.5
20260903004616 77 236 1.0 3.0 0.00 0.00 0.00 27 1024.5
20260903004110 77 44 0.0 1.0 0.00 0.00 0.00 27 1024.5
20260903003605 78 44 0.0 2.0 0.00 0.00 0.00 27 1024.6
20260903003138 78 107 1.0 2.0 0.00 0.00 0.00 25 1024.5
20260903002611 79 219 0.0 2.0 0.00 0.00 0.00 26 1024.6
20260903002104 79 219 1.0 5.0 0.00 0.00 0.00 23 1024.5
20260903001603 80 51 1.0 5.0 0.00 0.00 0.00 23 1024.6
20260903001116 81 325 1.0 5.0 0.00 0.00 0.00 23 1024.5
20260903000610 81 355 1.0 5.0 0.00 0.00 0.00 23 1024.6
20260902235618 80 193 1.0 3.0 0.00 0.00 0.00 23 1024.6
20260902235111 81 314 1.0 2.0 0.00 0.00 0.00 24 1024.7
20260902234604 81 160 0.0 4.0 0.00 0.00 0.00 25 1024.6
20260902234119 81 160 1.0 4.0 0.00 0.00 0.00 23 1024.7
20260902233616 81 302 2.0 7.0 0.00 0.00 0.00 24 1024.7
20260902233110 80 226 2.0 7.0 0.00 0.00 0.00 24 1024.8
20260902232604 81 350 3.0 8.0 0.00 0.00 0.00 24 1024.8
20260902232117 81 222 1.0 8.0 0.00 0.00 0.00 24 1024.9
20260902231612 81 238 1.0 3.0 0.00 0.00 0.00 24 1024.8
20260902231104 80 42 1.0 3.0 0.00 0.00 0.00 27 1024.8
20260902230617 80 74 2.0 3.0 0.00 0.00 0.00 25 1024.9
20260902230111 80 331 2.0 3.0 0.00 0.00 0.00 24 1024.9
20260902225609 80 155 1.0 4.0 0.00 0.00 0.00 24 1024.9
20260902225103 81 332 2.0 5.0 0.00 0.00 0.00 24 1025.0
20260902224616 81 5 2.0 5.0 0.00 0.00 0.00 25 1025.1
20260902224130 81 254 2.0 5.0 0.00 0.00 0.00 24 1025.0
20260902223624 80 153 1.0 5.0 0.00 0.00 0.00 26 1025.0
20260902223117 80 242 2.0 5.0 0.00 0.00 0.00 25 1025.0
20260902222611 79 26 1.0 3.0 0.00 0.00 0.00 26 1025.1
20260902222105 79 338 1.0 6.0 0.00 0.00 0.00 26 1025.2
20260902221618 80 79 2.0 6.0 0.00 0.00 0.00 25 1025.3
20260902221116 81 297 1.0 8.0 0.00 0.00 0.00 25 1025.3
20260902220610 82 351 2.0 8.0 0.00 0.00 0.00 25 1025.2
20260902220104 83 51 4.0 8.0 0.00 0.00 0.00 23 1025.1
20260902215638 84 235 2.0 4.0 0.00 0.00 0.00 23 1025.1
20260902215110 84 145 2.0 4.0 0.00 0.00 0.00 22 1025.2
20260902214604 84 265 3.0 6.0 0.00 0.00 0.00 22 1025.3
20260902214117 83 191 2.0 6.0 0.00 0.00 0.00 24 1025.3
20260902213632 83 214 2.0 5.0 0.00 0.00 0.00 24 1025.4
20260902213104 82 312 1.0 7.0 0.00 0.01 0.00 23 1025.4
20260902212638 82 306 2.0 7.0 0.00 0.01 0.00 24 1025.5
20260902212115 82 34 2.0 5.0 0.00 0.01 0.00 24 1025.6
20260902211607 82 355 2.0 4.0 0.00 0.01 0.00 25 1025.5
20260902211102 82 216 2.0 7.0 0.00 0.01 0.00 25 1025.5
20260902210616 82 173 3.0 7.0 0.00 0.01 0.00 24 1025.7
20260902210110 82 92 2.0 8.0 0.00 0.01 0.00 24 1025.8
20260902205624 81 327 3.0 8.0 0.00 0.01 0.00 23 1025.8
20260902205118 81 273 2.0 9.0 0.00 0.01 0.00 25 1025.8
20260902204613 80 26 3.0 9.0 0.00 0.01 0.00 26 1026.0
20260902204109 79 315 3.0 7.0 0.00 0.01 0.00 25 1026.0
20260902203604 78 11 0.0 0.0 0.00 0.01 0.00 26 1026.1
20260902203118 78 26 0.0 2.0 0.00 0.02 0.00 30 1026.2
20260902202612 79 161 1.0 8.0 0.00 0.02 0.00 34 1026.2
20260902202106 79 141 4.0 8.0 0.00 0.02 0.00 32 1026.2
20260902201639 79 277 2.0 6.0 0.00 0.02 0.00 34 1026.4
20260902201114 78 355 1.0 4.0 0.00 0.02 0.00 37 1026.4
20260902200607 78 78 2.0 7.0 0.00 0.02 0.00 36 1026.4
20260902200106 78 212 0.0 7.0 0.00 0.02 0.00 36 1026.4
20260902195620 77 143 2.0 4.0 0.00 0.02 0.00 39 1026.6
20260902195114 76 221 2.0 3.0 0.00 0.02 0.00 37 1026.8
20260902194607 76 136 0.0 4.0 0.00 0.02 0.00 40 1026.9
20260902194121 76 134 2.0 4.0 0.00 0.02 0.00 38 1026.9
20260902193615 76 139 2.0 5.0 0.00 0.02 0.00 40 1026.9
20260902193109 76 141 2.0 7.0 0.00 0.02 0.00 40 1026.9
20260902192604 76 136 3.0 9.0 0.00 0.02 0.00 39 1027.1
20260902192103 76 155 5.0 9.0 0.00 0.02 0.00 39 1027.1
20260902191616 76 143 4.0 7.0 0.00 0.02 0.00 40 1027.1
20260902191110 77 213 2.0 3.0 0.00 0.02 0.00 40 1027.3
20260902190624 76 128 2.0 5.0 0.00 0.02 0.00 41 1027.4
20260902190117 76 136 2.0 5.0 0.00 0.02 0.00 42 1027.5
20260902185611 75 110 2.0 5.0 0.00 0.02 0.00 42 1027.6
20260902185105 74 144 2.0 4.0 0.00 0.02 0.00 46 1027.7
20260902184619 73 44 2.0 4.0 0.00 0.02 0.00 44 1027.7
20260902184117 73 152 0.0 3.0 0.00 0.02 0.00 47 1027.9
20260902183611 73 44 1.0 4.0 0.00 0.02 0.00 46 1027.8
20260902183105 74 44 2.0 5.0 0.00 0.02 0.00 44 1028.0
20260902182619 74 55 3.0 5.0 0.00 0.02 0.00 43 1028.1
20260902182113 75 46 2.0 5.0 0.00 0.02 0.00 43 1028.1
20260902181607 75 41 2.0 6.0 0.00 0.02 0.00 44 1028.2
20260902181120 75 146 3.0 6.0 0.00 0.02 0.00 45 1028.2
20260902180614 76 32 3.0 5.0 0.00 0.02 0.00 42 1028.2
20260902180112 76 84 1.0 5.0 0.00 0.02 0.00 45 1028.2
20260902175626 76 140 2.0 5.0 0.00 0.02 0.00 46 1028.2
20260902175120 75 97 2.0 5.0 0.00 0.02 0.00 45 1028.3
20260902174614 74 157 4.0 6.0 0.00 0.02 0.00 46 1028.3
20260902174107 74 145 0.0 7.0 0.00 0.02 0.00 46 1028.5
20260902173601 74 157 3.0 7.0 0.00 0.02 0.00 45 1028.5
20260902173115 74 97 1.0 7.0 0.00 0.02 0.00 47 1028.5
20260902172629 73 117 3.0 8.0 0.00 0.02 0.00 48 1028.5
20260902172107 73 163 4.0 8.0 0.00 0.02 0.00 47 1028.6
20260902171640 73 192 2.0 8.0 0.00 0.02 0.00 47 1028.6
20260902171113 73 120 2.0 8.0 0.00 0.02 0.00 50 1028.7
20260902170607 73 140 3.0 8.0 0.00 0.02 0.00 49 1028.7
20260902165615 73 71 2.0 5.0 0.00 0.02 0.00 52 1028.8
20260902165109 73 157 2.0 7.0 0.00 0.02 0.00 50 1028.8
20260902164622 73 53 1.0 8.0 0.00 0.02 0.00 52 1028.8
20260902164116 72 158 3.0 8.0 0.00 0.02 0.00 53 1028.7
20260902163614 72 132 2.0 6.0 0.00 0.02 0.00 55 1028.7
20260902163108 71 139 1.0 7.0 0.00 0.02 0.00 55 1028.6
20260902162621 71 163 2.0 7.0 0.00 0.02 0.00 58 1028.6
20260902162116 70 56 1.0 5.0 0.00 0.02 0.00 57 1028.6
20260902161630 70 142 1.0 3.0 0.00 0.02 0.00 58 1028.6
20260902161122 69 56 2.0 3.0 0.00 0.02 0.00 57 1028.6
20260902160616 69 104 0.0 3.0 0.00 0.02 0.00 57 1028.7
20260902160110 70 105 0.0 6.0 0.00 0.02 0.00 58 1028.6
20260902155603 70 148 3.0 6.0 0.00 0.02 0.00 54 1028.5
20260902155121 70 162 2.0 5.0 0.00 0.02 0.00 58 1028.6
20260902154615 69 153 2.0 5.0 0.00 0.02 0.00 58 1028.5
20260902154108 68 157 2.0 4.0 0.00 0.02 0.00 60 1028.5
20260902153603 67 163 2.0 4.0 0.00 0.02 0.00 61 1028.5
20260902153136 67 131 1.0 3.0 0.00 0.02 0.00 62 1028.6
20260902152609 66 55 0.0 2.0 0.00 0.02 0.00 64 1028.6
20260902152103 66 45 0.0 2.0 0.00 0.02 0.00 65 1028.5
20260902151617 65 45 0.0 4.0 0.00 0.02 0.00 66 1028.4
20260902151109 65 45 3.0 4.0 0.00 0.02 0.00 64 1028.5
20260902150606 65 140 0.0 0.0 0.00 0.02 0.00 68 1028.4
20260902145635 64 140 0.0 0.0 0.00 0.02 0.00 65 1028.4
20260902145107 64 143 0.0 0.0 0.00 0.02 0.00 69 1028.4
20260902144601 64 143 0.0 0.0 0.00 0.02 0.00 67 1028.3
20260902144116 63 143 0.0 0.0 0.00 0.02 0.00 72 1028.3
20260902143609 61 143 0.0 0.0 0.00 0.02 0.00 74 1028.4
20260902143104 60 52 0.0 0.0 0.00 0.02 0.00 79 1028.3
20260902142616 59 52 0.0 0.0 0.00 0.02 0.00 81 1028.3
20260902142114 58 52 0.0 0.0 0.00 0.02 0.00 81 1028.3
20260902141608 56 52 0.0 0.0 0.00 0.02 0.00 83 1028.2
20260902141102 55 232 0.0 0.0 0.00 0.02 0.00 84 1028.1
20260902140616 55 55 0.0 0.0 0.00 0.02 0.00 87 1028.0
20260902140110 54 55 0.0 0.0 0.00 0.02 0.00 88 1028.1
20260902135603 53 55 0.0 0.0 0.00 0.02 0.00 88 1027.9
20260902135117 53 55 0.0 0.0 0.00 0.02 0.00 88 1027.8
20260902134611 52 55 0.0 0.0 0.00 0.02 0.00 88 1027.9
20260902134110 52 55 0.0 0.0 0.00 0.02 0.00 88 1027.8
20260902133603 52 55 0.0 0.0 0.00 0.02 0.00 88 1027.7
20260902133117 51 55 0.0 0.0 0.00 0.02 0.00 88 1027.6
20260902132611 51 55 0.0 0.0 0.00 0.02 0.00 87 1027.6
20260902132104 51 55 0.0 0.0 0.00 0.02 0.00 87 1027.6
20260902131618 51 55 0.0 0.0 0.00 0.02 0.00 87 1027.5
20260902131112 51 55 0.0 0.0 0.00 0.02 0.00 87 1027.5
20260902130610 51 55 0.0 0.0 0.00 0.02 0.00 87 1027.5
20260902125616 51 55 0.0 0.0 0.00 0.02 0.00 87 1027.6
20260902125110 51 55 0.0 0.0 0.00 0.02 0.00 86 1027.6
20260902124603 51 55 0.0 0.0 0.00 0.02 0.00 87 1027.6
20260902124117 51 55 0.0 0.0 0.00 0.02 0.00 87 1027.4
20260902123631 50 55 0.0 0.0 0.00 0.02 0.00 86 1027.4
20260902123103 51 55 0.0 0.0 0.00 0.03 0.00 86 1027.4
20260902122617 51 55 0.0 0.0 0.00 0.03 0.00 86 1027.4
20260902122130 51 55 0.0 0.0 0.00 0.03 0.00 86 1027.2
20260902121607 51 55 0.0 0.0 0.00 0.03 0.00 85 1027.1
20260902121121 51 55 0.0 0.0 0.00 0.03 0.00 85 1027.2
20260902120634 51 55 0.0 0.0 0.00 0.03 0.00 85 1027.2
20260902120107 51 55 0.0 0.0 0.00 0.03 0.00 85 1027.2
20260902115641 51 55 0.0 0.0 0.00 0.03 0.00 85 1027.1
20260902115115 52 55 0.0 0.0 0.00 0.03 0.00 86 1027.2
20260902114609 51 55 0.0 0.0 0.00 0.03 0.00 85 1027.2
20260902114103 52 55 0.0 0.0 0.00 0.03 0.00 85 1027.1
20260902113618 51 55 0.0 0.0 0.00 0.03 0.00 85 1027.1
20260902113135 52 55 0.0 0.0 0.00 0.04 0.00 85 1027.1
20260902112608 52 55 0.0 0.0 0.00 0.04 0.00 85 1027.2
20260902112102 52 55 0.0 0.0 0.00 0.04 0.00 85 1027.2
20260902111616 51 55 0.0 0.0 0.00 0.04 0.00 85 1027.2
20260902111110 51 55 0.0 0.0 0.00 0.04 0.00 85 1027.3
20260902110604 51 55 0.0 0.0 0.00 0.04 0.00 85 1027.3
20260902110118 51 55 0.0 0.0 0.00 0.04 0.00 85 1027.4
20260902105611 51 55 0.0 0.0 0.00 0.04 0.00 84 1027.4
20260902105109 52 55 0.0 0.0 0.00 0.04 0.00 84 1027.3
20260902104603 52 55 0.0 0.0 0.00 0.04 0.00 85 1027.4
20260902104116 52 55 0.0 0.0 0.00 0.04 0.00 85 1027.3
20260902103610 52 55 0.0 0.0 0.00 0.04 0.00 84 1027.2
20260902103124 52 55 0.0 0.0 0.00 0.04 0.00 84 1027.2
20260902102619 52 55 0.0 0.0 0.00 0.04 0.00 84 1027.2
20260902102133 52 55 0.0 0.0 0.00 0.04 0.00 84 1027.2
20260902101605 52 55 0.0 0.0 0.00 0.04 0.00 84 1027.2
20260902101140 52 55 0.0 0.0 0.00 0.04 0.00 85 1027.1
20260902100633 52 55 0.0 0.0 0.00 0.04 0.00 84 1027.2
20260902100110 52 55 0.0 0.0 0.00 0.04 0.00 83 1027.3
20260902095604 52 55 0.0 0.0 0.00 0.04 0.00 83 1027.2
20260902095118 53 55 0.0 0.0 0.00 0.04 0.00 83 1027.3
20260902094631 53 55 0.0 0.0 0.00 0.04 0.00 83 1027.3
20260902094105 53 55 0.0 0.0 0.00 0.04 0.00 83 1027.3
20260902093619 53 55 0.0 0.0 0.00 0.04 0.00 82 1027.4
20260902093114 53 55 0.0 0.0 0.00 0.04 0.00 82 1027.4
20260902092607 53 55 0.0 0.0 0.00 0.04 0.00 81 1027.4
20260902092121 53 55 0.0 0.0 0.00 0.04 0.00 82 1027.4
20260902091618 54 55 0.0 0.0 0.00 0.04 0.00 82 1027.5
20260902091113 54 55 0.0 0.0 0.00 0.04 0.00 82 1027.4
20260902090605 54 55 0.0 0.0 0.00 0.04 0.00 80 1027.4
20260902090140 54 55 0.0 0.0 0.00 0.04 0.00 81 1027.4
20260902085614 54 55 0.0 0.0 0.00 0.04 0.00 81 1027.4
20260902085108 55 55 0.0 0.0 0.00 0.04 0.00 80 1027.5
20260902084602 55 55 0.0 0.0 0.00 0.04 0.00 81 1027.4
20260902084116 55 55 0.0 0.0 0.00 0.04 0.00 80 1027.4
20260902083610 55 55 0.0 0.0 0.00 0.04 0.00 79 1027.4
20260902083108 55 55 0.0 0.0 0.00 0.04 0.00 79 1027.3
20260902082620 56 55 0.0 0.0 0.00 0.04 0.00 79 1027.3
20260902082111 56 55 0.0 0.0 0.00 0.04 0.00 78 1027.3
20260902081605 56 55 0.0 0.0 0.00 0.04 0.00 78 1027.3
20260902081120 56 55 0.0 0.0 0.00 0.04 0.00 80 1027.2
20260902080614 56 55 0.0 0.0 0.00 0.04 0.00 79 1027.3
20260902080108 56 55 0.0 0.0 0.00 0.04 0.00 79 1027.3
20260902075602 56 55 0.0 0.0 0.00 0.04 0.00 79 1027.4
20260902075119 56 55 0.0 0.0 0.00 0.04 0.00 78 1027.4
20260902074633 56 55 0.0 0.0 0.00 0.04 0.00 79 1027.4
20260902074107 56 55 0.0 0.0 0.00 0.04 0.00 81 1027.5
20260902073620 56 55 0.0 0.0 0.00 0.04 0.00 81 1027.5
20260902073114 56 55 0.0 0.0 0.00 0.04 0.00 80 1027.5
20260902072609 56 55 0.0 0.0 0.00 0.04 0.00 80 1027.4
20260902072123 56 55 0.0 0.0 0.00 0.04 0.00 80 1027.3
20260902071616 56 55 0.0 0.0 0.00 0.04 0.00 81 1027.4
20260902071109 57 55 0.0 0.0 0.00 0.04 0.00 81 1027.4
20260902070608 57 55 0.0 0.0 0.00 0.04 0.00 81 1027.4
20260902065636 57 55 0.0 0.0 0.00 0.04 0.00 80 1027.3
20260902065108 57 55 0.0 0.0 0.00 0.04 0.00 80 1027.3
20260902064624 57 55 0.0 0.0 0.00 0.04 0.00 80 1027.2
20260902064117 57 55 0.0 0.0 0.00 0.04 0.00 80 1027.2
20260902063632 57 55 0.0 0.0 0.00 0.04 0.00 81 1027.3
20260902063101 58 55 0.0 0.0 0.00 0.05 0.04 80 1027.4
20260902062636 58 55 0.0 0.0 0.00 0.05 0.04 80 1027.4
20260902062109 58 55 0.0 0.0 0.00 0.05 0.04 79 1027.4
20260902061607 58 55 0.0 0.0 0.00 0.05 0.04 78 1027.4
20260902061121 59 55 0.0 0.0 0.00 0.05 0.04 79 1027.4
20260902060614 59 55 0.0 0.0 0.00 0.05 0.04 77 1027.5
20260902060107 59 55 0.0 0.0 0.00 0.05 0.04 78 1027.3
20260902055621 59 55 0.0 0.0 0.00 0.05 0.04 79 1027.3
20260902055115 59 55 0.0 0.0 0.00 0.05 0.04 79 1027.4
20260902054609 58 55 0.0 0.0 0.00 0.05 0.04 81 1027.4
20260902054106 58 55 0.0 0.0 0.00 0.05 0.04 81 1027.4
20260902053641 58 55 0.0 0.0 0.00 0.05 0.04 81 1027.5
20260902053114 58 55 0.0 0.0 0.00 0.05 0.04 81 1027.4
20260902052629 58 55 0.0 0.0 0.00 0.05 0.04 80 1027.4
20260902052101 58 55 0.0 0.0 0.00 0.05 0.04 82 1027.5
20260902051636 58 55 0.0 0.0 0.00 0.05 0.04 81 1027.5
20260902051131 58 55 0.0 0.0 0.00 0.05 0.04 81 1027.4
20260902050604 58 55 0.0 0.0 0.00 0.05 0.04 81 1027.4
20260902050117 58 55 0.0 0.0 0.00 0.05 0.04 80 1027.4
20260902045611 58 55 0.0 0.0 0.00 0.05 0.04 81 1027.4
20260902045109 58 55 0.0 0.0 0.00 0.05 0.04 81 1027.4
20260902044602 58 55 0.0 0.0 0.00 0.05 0.04 80 1027.5
20260902044116 59 55 0.0 0.0 0.00 0.05 0.04 80 1027.4
20260902043609 59 55 0.0 0.0 0.00 0.05 0.04 80 1027.4
20260902043104 59 55 0.0 0.0 0.00 0.05 0.04 78 1027.5
20260902042617 59 55 0.0 0.0 0.00 0.05 0.04 78 1027.6
20260902042110 59 55 0.0 0.0 0.00 0.05 0.04 79 1027.6
20260902041603 59 55 0.0 0.0 0.00 0.05 0.04 79 1027.6
20260902041118 59 55 0.0 0.0 0.00 0.05 0.04 78 1027.6
20260902040611 59 55 0.0 0.0 0.00 0.05 0.04 78 1027.6
20260902040109 59 55 0.0 0.0 0.00 0.05 0.04 78 1027.4